owner,sensor,date,latitude,longitude,vertical_datum,sea_water_practical_salinity,qcFlag 
SCCF RECON,ioos:station:SCCF:16:1,2009-12-01T00:00:00Z,26.4345,-81.9647,2.787,34.15,1111122 
SCCF RECON,ioos:station:SCCF:16:1,2009-12-01T01:00:00Z,26.4345,-81.9647,2.909,34.19,1111122 
SCCF RECON,ioos:station:SCCF:16:1,2009-12-01T02:00:00Z,26.4345,-81.9647,3.002,34.42,1111122 
SCCF RECON,ioos:station:SCCF:16:1,2009-12-01T03:00:00Z,26.4345,-81.9647,3.037,34.68,1111122 
SCCF RECON,ioos:station:SCCF:16:1,2009-12-01T04:00:00Z,26.4345,-81.9647,3.029,34.7,1111122 
SCCF RECON,ioos:station:SCCF:16:1,2009-12-01T05:00:00Z,26.4345,-81.9647,2.9,34.73,1111122 
SCCF RECON,ioos:station:SCCF:16:1,2009-12-01T06:00:00Z,26.4345,-81.9647,2.671,34.75,1111122 
SCCF RECON,ioos:station:SCCF:16:1,2009-12-01T07:00:00Z,26.4345,-81.9647,2.413,34.45,1111122 
SCCF RECON,ioos:station:SCCF:16:1,2009-12-01T08:00:00Z,26.4345,-81.9647,2.183,34.09,1111122 
SCCF RECON,ioos:station:SCCF:16:1,2009-12-01T09:00:00Z,26.4345,-81.9647,1.973,33.77,1111122 
SCCF RECON,ioos:station:SCCF:16:1,2009-12-01T10:00:00Z,26.4345,-81.9647,1.836,33.53,1111122 
SCCF RECON,ioos:station:SCCF:16:1,2009-12-01T11:00:00Z,26.4345,-81.9647,1.831,33.24,1111122 
SCCF RECON,ioos:station:SCCF:16:1,2009-12-01T12:00:00Z,26.4345,-81.9647,2.037,33.89,1111122 
SCCF RECON,ioos:station:SCCF:16:1,2009-12-01T13:00:00Z,26.4345,-81.9647,2.325,33.76,1111122 
SCCF RECON,ioos:station:SCCF:16:1,2009-12-01T14:00:00Z,26.4345,-81.9647,2.471,34.17,1111122 
SCCF RECON,ioos:station:SCCF:16:1,2009-12-01T15:00:00Z,26.4345,-81.9647,2.609,34.5,1111122 
SCCF RECON,ioos:station:SCCF:16:1,2009-12-01T16:00:00Z,26.4345,-81.9647,2.754,34.51,1111122 
SCCF RECON,ioos:station:SCCF:16:1,2009-12-01T17:00:00Z,26.4345,-81.9647,2.833,34.65,1111122 
SCCF RECON,ioos:station:SCCF:16:1,2009-12-01T18:00:00Z,26.4345,-81.9647,2.761,34.72,1111122 
SCCF RECON,ioos:station:SCCF:16:1,2009-12-01T19:00:00Z,26.4345,-81.9647,2.69,34.68,1111122 
SCCF RECON,ioos:station:SCCF:16:1,2009-12-01T20:00:00Z,26.4345,-81.9647,2.592,34.56,1111122 
SCCF RECON,ioos:station:SCCF:16:1,2009-12-01T21:00:00Z,26.4345,-81.9647,2.563,34.48,1111122 
SCCF RECON,ioos:station:SCCF:16:1,2009-12-01T22:00:00Z,26.4345,-81.9647,2.573,34.46,1111122 
SCCF RECON,ioos:station:SCCF:16:1,2009-12-01T23:00:00Z,26.4345,-81.9647,2.589,34.23,1111122 
SCCF RECON,ioos:station:SCCF:16:1,2009-12-02T00:00:00Z,26.4345,-81.9647,2.728,34.39,1111122 
SCCF RECON,ioos:station:SCCF:16:1,2009-12-02T01:00:00Z,26.4345,-81.9647,2.905,34.49,1111122 
SCCF RECON,ioos:station:SCCF:16:1,2009-12-02T02:00:00Z,26.4345,-81.9647,3.052,34.36,1111122 
SCCF RECON,ioos:station:SCCF:16:1,2009-12-02T03:00:00Z,26.4345,-81.9647,3.129,34.53,1111122 
SCCF RECON,ioos:station:SCCF:16:1,2009-12-02T04:00:00Z,26.4345,-81.9647,3.098,34.52,1111122 
SCCF RECON,ioos:station:SCCF:16:1,2009-12-02T05:00:00Z,26.4345,-81.9647,3.003,34.52,1111122 
SCCF RECON,ioos:station:SCCF:16:1,2009-12-02T06:00:00Z,26.4345,-81.9647,2.876,34.57,1111122 
SCCF RECON,ioos:station:SCCF:16:1,2009-12-02T07:00:00Z,26.4345,-81.9647,2.653,34.44,1111122 
SCCF RECON,ioos:station:SCCF:16:1,2009-12-02T08:00:00Z,26.4345,-81.9647,2.405,34.27,1111122 
SCCF RECON,ioos:station:SCCF:16:1,2009-12-02T09:00:00Z,26.4345,-81.9647,2.197,34.23,1111122 
SCCF RECON,ioos:station:SCCF:16:1,2009-12-02T10:00:00Z,26.4345,-81.9647,2.009,34.18,1111122 
SCCF RECON,ioos:station:SCCF:16:1,2009-12-02T11:00:00Z,26.4345,-81.9647,1.876,34.21,1111122 
SCCF RECON,ioos:station:SCCF:16:1,2009-12-02T12:00:00Z,26.4345,-81.9647,1.996,33.76,1111122 
SCCF RECON,ioos:station:SCCF:16:1,2009-12-02T13:00:00Z,26.4345,-81.9647,2.203,34.39,1111122 
SCCF RECON,ioos:station:SCCF:16:1,2009-12-02T14:00:00Z,26.4345,-81.9647,2.499,34.77,1111122 
SCCF RECON,ioos:station:SCCF:16:1,2009-12-02T15:00:00Z,26.4345,-81.9647,2.677,34.6,1111122 
SCCF RECON,ioos:station:SCCF:16:1,2009-12-02T16:00:00Z,26.4345,-81.9647,2.799,34.46,1111122 
SCCF RECON,ioos:station:SCCF:16:1,2009-12-02T17:00:00Z,26.4345,-81.9647,2.836,34.54,1111122 
SCCF RECON,ioos:station:SCCF:16:1,2009-12-02T18:00:00Z,26.4345,-81.9647,2.882,34.41,1111122 
SCCF RECON,ioos:station:SCCF:16:1,2009-12-02T19:00:00Z,26.4345,-81.9647,2.829,34.28,1111122 
SCCF RECON,ioos:station:SCCF:16:1,2009-12-02T20:00:00Z,26.4345,-81.9647,2.783,34.09,1111122 
SCCF RECON,ioos:station:SCCF:16:1,2009-12-02T21:00:00Z,26.4345,-81.9647,2.751,33.96,1111122 
SCCF RECON,ioos:station:SCCF:16:1,2009-12-02T22:00:00Z,26.4345,-81.9647,2.683,33.9,1111122 
SCCF RECON,ioos:station:SCCF:16:1,2009-12-02T23:00:00Z,26.4345,-81.9647,2.64,33.88,1111122 
SCCF RECON,ioos:station:SCCF:16:1,2009-12-03T00:00:00Z,26.4345,-81.9647,2.709,33.85,1111122 
SCCF RECON,ioos:station:SCCF:16:1,2009-12-03T01:00:00Z,26.4345,-81.9647,2.838,33.89,1111122 
SCCF RECON,ioos:station:SCCF:16:1,2009-12-03T02:00:00Z,26.4345,-81.9647,2.923,34.01,1111122 
SCCF RECON,ioos:station:SCCF:16:1,2009-12-03T03:00:00Z,26.4345,-81.9647,3.058,34.1,1111122 
SCCF RECON,ioos:station:SCCF:16:1,2009-12-03T04:00:00Z,26.4345,-81.9647,3.106,34.38,1111122 
SCCF RECON,ioos:station:SCCF:16:1,2009-12-03T05:00:00Z,26.4345,-81.9647,3.077,34.58,1111122 
SCCF RECON,ioos:station:SCCF:16:1,2009-12-03T06:00:00Z,26.4345,-81.9647,3.017,34.69,1111122 
SCCF RECON,ioos:station:SCCF:16:1,2009-12-03T07:00:00Z,26.4345,-81.9647,2.829,34.67,1111122 
SCCF RECON,ioos:station:SCCF:16:1,2009-12-03T08:00:00Z,26.4345,-81.9647,2.603,34.47,1111122 
SCCF RECON,ioos:station:SCCF:16:1,2009-12-03T09:00:00Z,26.4345,-81.9647,2.382,34.25,1111122 
SCCF RECON,ioos:station:SCCF:16:1,2009-12-03T10:00:00Z,26.4345,-81.9647,2.106,34.25,1111122 
SCCF RECON,ioos:station:SCCF:16:1,2009-12-03T11:00:00Z,26.4345,-81.9647,1.829,34.01,1111122 
SCCF RECON,ioos:station:SCCF:16:1,2009-12-03T12:00:00Z,26.4345,-81.9647,1.736,33.9,1111122 
SCCF RECON,ioos:station:SCCF:16:1,2009-12-03T13:00:00Z,26.4345,-81.9647,1.882,34.09,1111122 
SCCF RECON,ioos:station:SCCF:16:1,2009-12-03T14:00:00Z,26.4345,-81.9647,2.168,34.33,1111122 
SCCF RECON,ioos:station:SCCF:16:1,2009-12-03T15:00:00Z,26.4345,-81.9647,2.409,34.53,1111122 
SCCF RECON,ioos:station:SCCF:16:1,2009-12-03T16:00:00Z,26.4345,-81.9647,2.541,34.45,1111122 
SCCF RECON,ioos:station:SCCF:16:1,2009-12-03T17:00:00Z,26.4345,-81.9647,2.665,34.55,1111122 
SCCF RECON,ioos:station:SCCF:16:1,2009-12-03T18:00:00Z,26.4345,-81.9647,2.718,34.71,1111122 
SCCF RECON,ioos:station:SCCF:16:1,2009-12-03T19:00:00Z,26.4345,-81.9647,2.697,34.66,1111122 
SCCF RECON,ioos:station:SCCF:16:1,2009-12-03T20:00:00Z,26.4345,-81.9647,2.668,34.63,1111122 
SCCF RECON,ioos:station:SCCF:16:1,2009-12-03T21:00:00Z,26.4345,-81.9647,2.587,34.66,1111122 
SCCF RECON,ioos:station:SCCF:16:1,2009-12-03T22:00:00Z,26.4345,-81.9647,2.537,34.64,1111122 
SCCF RECON,ioos:station:SCCF:16:1,2009-12-03T23:00:00Z,26.4345,-81.9647,2.493,34.64,1111122 
SCCF RECON,ioos:station:SCCF:16:1,2009-12-04T00:00:00Z,26.4345,-81.9647,2.477,34.54,1111122 
SCCF RECON,ioos:station:SCCF:16:1,2009-12-04T01:00:00Z,26.4345,-81.9647,2.592,34.42,1111122 
SCCF RECON,ioos:station:SCCF:16:1,2009-12-04T02:00:00Z,26.4345,-81.9647,2.702,34.24,1111122 
SCCF RECON,ioos:station:SCCF:16:1,2009-12-04T03:00:00Z,26.4345,-81.9647,2.845,34.56,1111122 
SCCF RECON,ioos:station:SCCF:16:1,2009-12-04T04:00:00Z,26.4345,-81.9647,2.952,34.66,1111122 
SCCF RECON,ioos:station:SCCF:16:1,2009-12-04T05:00:00Z,26.4345,-81.9647,2.952,34.67,1111122 
SCCF RECON,ioos:station:SCCF:16:1,2009-12-04T06:00:00Z,26.4345,-81.9647,2.929,34.58,1111122 
SCCF RECON,ioos:station:SCCF:16:1,2009-12-04T07:00:00Z,26.4345,-81.9647,2.763,34.74,1111122 
SCCF RECON,ioos:station:SCCF:16:1,2009-12-04T08:00:00Z,26.4345,-81.9647,2.602,34.53,1111122 
SCCF RECON,ioos:station:SCCF:16:1,2009-12-04T09:00:00Z,26.4345,-81.9647,2.357,34.42,1111122 
SCCF RECON,ioos:station:SCCF:16:1,2009-12-04T10:00:00Z,26.4345,-81.9647,2.09,34.33,1111122 
SCCF RECON,ioos:station:SCCF:16:1,2009-12-04T11:00:00Z,26.4345,-81.9647,1.886,34.28,1111122 
SCCF RECON,ioos:station:SCCF:16:1,2009-12-04T12:00:00Z,26.4345,-81.9647,1.687,34.11,1111122 
SCCF RECON,ioos:station:SCCF:16:1,2009-12-04T13:00:00Z,26.4345,-81.9647,1.571,33.6,1111122 
SCCF RECON,ioos:station:SCCF:16:1,2009-12-04T14:00:00Z,26.4345,-81.9647,1.771,33.82,1111122 
SCCF RECON,ioos:station:SCCF:16:1,2009-12-04T15:00:00Z,26.4345,-81.9647,2.048,33.7,1111122 
SCCF RECON,ioos:station:SCCF:16:1,2009-12-04T16:00:00Z,26.4345,-81.9647,2.284,34.12,1111122 
SCCF RECON,ioos:station:SCCF:16:1,2009-12-04T17:00:00Z,26.4345,-81.9647,2.413,34.23,1111122 
SCCF RECON,ioos:station:SCCF:16:1,2009-12-04T18:00:00Z,26.4345,-81.9647,2.496,34.58,1111122 
SCCF RECON,ioos:station:SCCF:16:1,2009-12-04T19:00:00Z,26.4345,-81.9647,2.572,34.71,1111122 
SCCF RECON,ioos:station:SCCF:16:1,2009-12-04T20:00:00Z,26.4345,-81.9647,2.591,34.74,1111122 
SCCF RECON,ioos:station:SCCF:16:1,2009-12-04T21:00:00Z,26.4345,-81.9647,2.586,34.76,1111122 
SCCF RECON,ioos:station:SCCF:16:1,2009-12-04T22:00:00Z,26.4345,-81.9647,2.438,34.32,1111122 
SCCF RECON,ioos:station:SCCF:16:1,2009-12-04T23:00:00Z,26.4345,-81.9647,2.356,34.35,1111122 
SCCF RECON,ioos:station:SCCF:16:1,2009-12-05T00:00:00Z,26.4345,-81.9647,2.358,34.25,1111122 
SCCF RECON,ioos:station:SCCF:16:1,2009-12-05T01:00:00Z,26.4345,-81.9647,2.304,34.13,1111122 
SCCF RECON,ioos:station:SCCF:16:1,2009-12-05T02:00:00Z,26.4345,-81.9647,2.428,34.11,1111122 
SCCF RECON,ioos:station:SCCF:16:1,2009-12-05T03:00:00Z,26.4345,-81.9647,2.604,34.16,1111122 
SCCF RECON,ioos:station:SCCF:16:1,2009-12-05T04:00:00Z,26.4345,-81.9647,2.769,34.29,1111122 
SCCF RECON,ioos:station:SCCF:16:1,2009-12-05T05:00:00Z,26.4345,-81.9647,2.834,34.31,1111122 
SCCF RECON,ioos:station:SCCF:16:1,2009-12-05T06:00:00Z,26.4345,-81.9647,2.912,34.27,1111122 
SCCF RECON,ioos:station:SCCF:16:1,2009-12-05T07:00:00Z,26.4345,-81.9647,2.777,34.34,1111122 
SCCF RECON,ioos:station:SCCF:16:1,2009-12-05T08:00:00Z,26.4345,-81.9647,2.747,34.37,1111122 
SCCF RECON,ioos:station:SCCF:16:1,2009-12-05T09:00:00Z,26.4345,-81.9647,2.622,34.39,1111122 
SCCF RECON,ioos:station:SCCF:16:1,2009-12-05T10:00:00Z,26.4345,-81.9647,2.449,34.33,1111122 
SCCF RECON,ioos:station:SCCF:16:1,2009-12-05T11:00:00Z,26.4345,-81.9647,2.208,34.16,1111122 
SCCF RECON,ioos:station:SCCF:16:1,2009-12-05T12:00:00Z,26.4345,-81.9647,1.993,33.74,1111122 
SCCF RECON,ioos:station:SCCF:16:1,2009-12-05T13:00:00Z,26.4345,-81.9647,1.898,33.75,1111122 
SCCF RECON,ioos:station:SCCF:16:1,2009-12-05T14:00:00Z,26.4345,-81.9647,1.952,33.7,1111122 
SCCF RECON,ioos:station:SCCF:16:1,2009-12-05T15:00:00Z,26.4345,-81.9647,2.184,33.68,1111122 
SCCF RECON,ioos:station:SCCF:16:1,2009-12-05T16:00:00Z,26.4345,-81.9647,2.478,33.69,1111122 
SCCF RECON,ioos:station:SCCF:16:1,2009-12-05T17:00:00Z,26.4345,-81.9647,2.522,33.89,1111122 
SCCF RECON,ioos:station:SCCF:16:1,2009-12-05T18:00:00Z,26.4345,-81.9647,2.529,33.86,1111122 
SCCF RECON,ioos:station:SCCF:16:1,2009-12-05T19:00:00Z,26.4345,-81.9647,2.594,34.05,1111122 
SCCF RECON,ioos:station:SCCF:16:1,2009-12-05T20:00:00Z,26.4345,-81.9647,2.443,34.03,1111122 
SCCF RECON,ioos:station:SCCF:16:1,2009-12-05T21:00:00Z,26.4345,-81.9647,2.443,33.87,1111122 
SCCF RECON,ioos:station:SCCF:16:1,2009-12-05T22:00:00Z,26.4345,-81.9647,2.452,33.85,1111122 
SCCF RECON,ioos:station:SCCF:16:1,2009-12-05T23:00:00Z,26.4345,-81.9647,2.251,33.97,1111122 
SCCF RECON,ioos:station:SCCF:16:1,2009-12-06T00:00:00Z,26.4345,-81.9647,2.155,33.3,1111122 
SCCF RECON,ioos:station:SCCF:16:1,2009-12-06T01:00:00Z,26.4345,-81.9647,2.095,33.09,1111122 
SCCF RECON,ioos:station:SCCF:16:1,2009-12-06T02:00:00Z,26.4345,-81.9647,2.18,32.65,1111122 
SCCF RECON,ioos:station:SCCF:16:1,2009-12-06T03:00:00Z,26.4345,-81.9647,2.228,32.15,1111122 
SCCF RECON,ioos:station:SCCF:16:1,2009-12-06T04:00:00Z,26.4345,-81.9647,2.491,32.47,1111122 
SCCF RECON,ioos:station:SCCF:16:1,2009-12-06T05:00:00Z,26.4345,-81.9647,2.636,33.46,1111122 
SCCF RECON,ioos:station:SCCF:16:1,2009-12-06T06:00:00Z,26.4345,-81.9647,2.671,33.76,1111122 
SCCF RECON,ioos:station:SCCF:16:1,2009-12-06T07:00:00Z,26.4345,-81.9647,2.66,33.78,1111122 
SCCF RECON,ioos:station:SCCF:16:1,2009-12-06T08:00:00Z,26.4345,-81.9647,2.629,33.72,1111122 
SCCF RECON,ioos:station:SCCF:16:1,2009-12-06T09:00:00Z,26.4345,-81.9647,2.555,33.69,1111122 
SCCF RECON,ioos:station:SCCF:16:1,2009-12-06T10:00:00Z,26.4345,-81.9647,2.409,33.37,1111122 
SCCF RECON,ioos:station:SCCF:16:1,2009-12-06T11:00:00Z,26.4345,-81.9647,2.284,33.21,1111122 
SCCF RECON,ioos:station:SCCF:16:1,2009-12-06T12:00:00Z,26.4345,-81.9647,2.115,32.91,1111122 
SCCF RECON,ioos:station:SCCF:16:1,2009-12-06T13:00:00Z,26.4345,-81.9647,1.944,31.92,1111122 
SCCF RECON,ioos:station:SCCF:16:1,2009-12-06T14:00:00Z,26.4345,-81.9647,1.845,31.63,1111122 
SCCF RECON,ioos:station:SCCF:16:1,2009-12-06T15:00:00Z,26.4345,-81.9647,1.903,30.74,1111122 
SCCF RECON,ioos:station:SCCF:16:1,2009-12-06T16:00:00Z,26.4345,-81.9647,2.083,31.05,1111122 
SCCF RECON,ioos:station:SCCF:16:1,2009-12-06T17:00:00Z,26.4345,-81.9647,2.257,31.68,1111122 
SCCF RECON,ioos:station:SCCF:16:1,2009-12-06T18:00:00Z,26.4345,-81.9647,2.407,31.83,1111122 
SCCF RECON,ioos:station:SCCF:16:1,2009-12-06T19:00:00Z,26.4345,-81.9647,2.544,32.52,1111122 
SCCF RECON,ioos:station:SCCF:16:1,2009-12-06T20:00:00Z,26.4345,-81.9647,2.62,32.99,1111122 
SCCF RECON,ioos:station:SCCF:16:1,2009-12-06T21:00:00Z,26.4345,-81.9647,2.723,33.61,1111122 
SCCF RECON,ioos:station:SCCF:16:1,2009-12-06T22:00:00Z,26.4345,-81.9647,2.716,33.33,1111122 
SCCF RECON,ioos:station:SCCF:16:1,2009-12-06T23:00:00Z,26.4345,-81.9647,2.611,33.97,1111122 
SCCF RECON,ioos:station:SCCF:16:1,2009-12-07T00:00:00Z,26.4345,-81.9647,2.518,33.98,1111122 
SCCF RECON,ioos:station:SCCF:16:1,2009-12-07T01:00:00Z,26.4345,-81.9647,2.39,33.56,1111122 
SCCF RECON,ioos:station:SCCF:16:1,2009-12-07T02:00:00Z,26.4345,-81.9647,2.363,32.69,1111122 
SCCF RECON,ioos:station:SCCF:16:1,2009-12-07T03:00:00Z,26.4345,-81.9647,2.399,32.78,1111122 
SCCF RECON,ioos:station:SCCF:16:1,2009-12-07T04:00:00Z,26.4345,-81.9647,2.475,32.53,1111122 
SCCF RECON,ioos:station:SCCF:16:1,2009-12-07T05:00:00Z,26.4345,-81.9647,2.628,32.79,1111122 
SCCF RECON,ioos:station:SCCF:16:1,2009-12-07T06:00:00Z,26.4345,-81.9647,2.709,33.64,1111122 
SCCF RECON,ioos:station:SCCF:16:1,2009-12-07T07:00:00Z,26.4345,-81.9647,2.732,34.01,1111122 
SCCF RECON,ioos:station:SCCF:16:1,2009-12-07T08:00:00Z,26.4345,-81.9647,2.764,34.19,1111122 
SCCF RECON,ioos:station:SCCF:16:1,2009-12-07T09:00:00Z,26.4345,-81.9647,2.791,34.29,1111122 
SCCF RECON,ioos:station:SCCF:16:1,2009-12-07T10:00:00Z,26.4345,-81.9647,2.695,34.35,1111122 
SCCF RECON,ioos:station:SCCF:16:1,2009-12-07T11:00:00Z,26.4345,-81.9647,2.581,33.9,1111122 
SCCF RECON,ioos:station:SCCF:16:1,2009-12-07T12:00:00Z,26.4345,-81.9647,2.433,33.75,1111122 
SCCF RECON,ioos:station:SCCF:16:1,2009-12-07T13:00:00Z,26.4345,-81.9647,2.269,33.65,1111122 
SCCF RECON,ioos:station:SCCF:16:1,2009-12-07T14:00:00Z,26.4345,-81.9647,2.104,32.77,1111122 
SCCF RECON,ioos:station:SCCF:16:1,2009-12-07T15:00:00Z,26.4345,-81.9647,2.005,32.53,1111122 
SCCF RECON,ioos:station:SCCF:16:1,2009-12-07T16:00:00Z,26.4345,-81.9647,2.095,32.95,1111122 
SCCF RECON,ioos:station:SCCF:16:1,2009-12-07T17:00:00Z,26.4345,-81.9647,2.225,32.59,1111122 
SCCF RECON,ioos:station:SCCF:16:1,2009-12-07T18:00:00Z,26.4345,-81.9647,2.407,32.96,1111122 
SCCF RECON,ioos:station:SCCF:16:1,2009-12-07T19:00:00Z,26.4345,-81.9647,2.503,33.12,1111122 
SCCF RECON,ioos:station:SCCF:16:1,2009-12-07T20:00:00Z,26.4345,-81.9647,2.6,33.17,1111122 
SCCF RECON,ioos:station:SCCF:16:1,2009-12-07T21:00:00Z,26.4345,-81.9647,2.626,33.63,1111122 
SCCF RECON,ioos:station:SCCF:16:1,2009-12-07T22:00:00Z,26.4345,-81.9647,2.663,34.0,1111122 
SCCF RECON,ioos:station:SCCF:16:1,2009-12-07T23:00:00Z,26.4345,-81.9647,2.668,34.24,1111122 
SCCF RECON,ioos:station:SCCF:16:1,2009-12-08T00:00:00Z,26.4345,-81.9647,2.575,34.25,1111122 
SCCF RECON,ioos:station:SCCF:16:1,2009-12-08T01:00:00Z,26.4345,-81.9647,2.457,34.11,1111122 
SCCF RECON,ioos:station:SCCF:16:1,2009-12-08T02:00:00Z,26.4345,-81.9647,2.385,33.94,1111122 
SCCF RECON,ioos:station:SCCF:16:1,2009-12-08T03:00:00Z,26.4345,-81.9647,2.311,33.81,1111122 
SCCF RECON,ioos:station:SCCF:16:1,2009-12-08T04:00:00Z,26.4345,-81.9647,2.329,33.69,1111122 
SCCF RECON,ioos:station:SCCF:16:1,2009-12-08T05:00:00Z,26.4345,-81.9647,2.409,32.98,1111122 
SCCF RECON,ioos:station:SCCF:16:1,2009-12-08T06:00:00Z,26.4345,-81.9647,2.475,33.7,1111122 
SCCF RECON,ioos:station:SCCF:16:1,2009-12-08T07:00:00Z,26.4345,-81.9647,2.567,34.13,1111122 
SCCF RECON,ioos:station:SCCF:16:1,2009-12-08T08:00:00Z,26.4345,-81.9647,2.651,34.18,1111122 
SCCF RECON,ioos:station:SCCF:16:1,2009-12-08T09:00:00Z,26.4345,-81.9647,2.702,34.25,1111122 
SCCF RECON,ioos:station:SCCF:16:1,2009-12-08T10:00:00Z,26.4345,-81.9647,2.743,34.3,1111122 
SCCF RECON,ioos:station:SCCF:16:1,2009-12-08T11:00:00Z,26.4345,-81.9647,2.711,34.33,1111122 
SCCF RECON,ioos:station:SCCF:16:1,2009-12-08T12:00:00Z,26.4345,-81.9647,2.619,34.34,1111122 
SCCF RECON,ioos:station:SCCF:16:1,2009-12-08T13:00:00Z,26.4345,-81.9647,2.504,34.28,1111122 
SCCF RECON,ioos:station:SCCF:16:1,2009-12-08T14:00:00Z,26.4345,-81.9647,2.359,34.06,1111122 
SCCF RECON,ioos:station:SCCF:16:1,2009-12-08T15:00:00Z,26.4345,-81.9647,2.269,33.75,1111122 
SCCF RECON,ioos:station:SCCF:16:1,2009-12-08T16:00:00Z,26.4345,-81.9647,2.239,33.29,1111122 
SCCF RECON,ioos:station:SCCF:16:1,2009-12-08T17:00:00Z,26.4345,-81.9647,2.269,33.13,1111122 
SCCF RECON,ioos:station:SCCF:16:1,2009-12-08T18:00:00Z,26.4345,-81.9647,2.368,33.11,1111122 
SCCF RECON,ioos:station:SCCF:16:1,2009-12-08T19:00:00Z,26.4345,-81.9647,2.537,33.4,1111122 
SCCF RECON,ioos:station:SCCF:16:1,2009-12-08T20:00:00Z,26.4345,-81.9647,2.645,33.82,1111122 
SCCF RECON,ioos:station:SCCF:16:1,2009-12-08T21:00:00Z,26.4345,-81.9647,2.698,34.02,1111122 
SCCF RECON,ioos:station:SCCF:16:1,2009-12-08T22:00:00Z,26.4345,-81.9647,2.763,33.96,1111122 
SCCF RECON,ioos:station:SCCF:16:1,2009-12-08T23:00:00Z,26.4345,-81.9647,2.765,33.76,1111122 
SCCF RECON,ioos:station:SCCF:16:1,2009-12-09T00:00:00Z,26.4345,-81.9647,2.738,33.57,1111122 
SCCF RECON,ioos:station:SCCF:16:1,2009-12-09T01:00:00Z,26.4345,-81.9647,2.652,33.81,1111122 
SCCF RECON,ioos:station:SCCF:16:1,2009-12-09T02:00:00Z,26.4345,-81.9647,2.569,33.94,1111122 
SCCF RECON,ioos:station:SCCF:16:1,2009-12-09T03:00:00Z,26.4345,-81.9647,2.492,33.88,1111122 
SCCF RECON,ioos:station:SCCF:16:1,2009-12-09T04:00:00Z,26.4345,-81.9647,2.412,33.87,1111122 
SCCF RECON,ioos:station:SCCF:16:1,2009-12-09T05:00:00Z,26.4345,-81.9647,2.353,33.76,1111122 
SCCF RECON,ioos:station:SCCF:16:1,2009-12-09T06:00:00Z,26.4345,-81.9647,2.378,33.62,1111122 
SCCF RECON,ioos:station:SCCF:16:1,2009-12-09T07:00:00Z,26.4345,-81.9647,2.483,33.58,1111122 
SCCF RECON,ioos:station:SCCF:16:1,2009-12-09T08:00:00Z,26.4345,-81.9647,2.595,33.62,1111122 
SCCF RECON,ioos:station:SCCF:16:1,2009-12-09T09:00:00Z,26.4345,-81.9647,2.648,33.83,1111122 
SCCF RECON,ioos:station:SCCF:16:1,2009-12-09T10:00:00Z,26.4345,-81.9647,2.687,33.86,1111122 
SCCF RECON,ioos:station:SCCF:16:1,2009-12-09T11:00:00Z,26.4345,-81.9647,2.725,33.69,1111122 
SCCF RECON,ioos:station:SCCF:16:1,2009-12-09T12:00:00Z,26.4345,-81.9647,2.712,33.73,1111122 
SCCF RECON,ioos:station:SCCF:16:1,2009-12-09T13:00:00Z,26.4345,-81.9647,2.638,33.69,1111122 
SCCF RECON,ioos:station:SCCF:16:1,2009-12-09T14:00:00Z,26.4345,-81.9647,2.544,33.83,1111122 
SCCF RECON,ioos:station:SCCF:16:1,2009-12-09T15:00:00Z,26.4345,-81.9647,2.449,33.63,1111122 
SCCF RECON,ioos:station:SCCF:16:1,2009-12-09T16:00:00Z,26.4345,-81.9647,2.362,33.52,1111122 
SCCF RECON,ioos:station:SCCF:16:1,2009-12-09T17:00:00Z,26.4345,-81.9647,2.317,33.52,1111122 
SCCF RECON,ioos:station:SCCF:16:1,2009-12-09T18:00:00Z,26.4345,-81.9647,2.354,33.45,1111122 
SCCF RECON,ioos:station:SCCF:16:1,2009-12-09T19:00:00Z,26.4345,-81.9647,2.461,33.41,1111122 
SCCF RECON,ioos:station:SCCF:16:1,2009-12-09T20:00:00Z,26.4345,-81.9647,2.579,33.35,1111122 
SCCF RECON,ioos:station:SCCF:16:1,2009-12-09T21:00:00Z,26.4345,-81.9647,2.662,33.44,1111122 
SCCF RECON,ioos:station:SCCF:16:1,2009-12-09T22:00:00Z,26.4345,-81.9647,2.731,33.65,1111122 
SCCF RECON,ioos:station:SCCF:16:1,2009-12-09T23:00:00Z,26.4345,-81.9647,2.78,33.95,1111122 
SCCF RECON,ioos:station:SCCF:16:1,2009-12-10T00:00:00Z,26.4345,-81.9647,2.832,33.97,1111122 
SCCF RECON,ioos:station:SCCF:16:1,2009-12-10T01:00:00Z,26.4345,-81.9647,2.792,34.09,1111122 
SCCF RECON,ioos:station:SCCF:16:1,2009-12-10T02:00:00Z,26.4345,-81.9647,2.695,34.09,1111122 
SCCF RECON,ioos:station:SCCF:16:1,2009-12-10T03:00:00Z,26.4345,-81.9647,2.559,34.03,1111122 
SCCF RECON,ioos:station:SCCF:16:1,2009-12-10T04:00:00Z,26.4345,-81.9647,2.426,33.99,1111122 
SCCF RECON,ioos:station:SCCF:16:1,2009-12-10T05:00:00Z,26.4345,-81.9647,2.312,33.85,1111122 
SCCF RECON,ioos:station:SCCF:16:1,2009-12-10T06:00:00Z,26.4345,-81.9647,2.216,33.63,1111122 
SCCF RECON,ioos:station:SCCF:16:1,2009-12-10T07:00:00Z,26.4345,-81.9647,2.25,33.4,1111122 
SCCF RECON,ioos:station:SCCF:16:1,2009-12-10T08:00:00Z,26.4345,-81.9647,2.338,33.27,1111122 
SCCF RECON,ioos:station:SCCF:16:1,2009-12-10T09:00:00Z,26.4345,-81.9647,2.481,33.38,1111122 
SCCF RECON,ioos:station:SCCF:16:1,2009-12-10T10:00:00Z,26.4345,-81.9647,2.55,33.44,1111122 
SCCF RECON,ioos:station:SCCF:16:1,2009-12-10T11:00:00Z,26.4345,-81.9647,2.612,33.44,1111122 
SCCF RECON,ioos:station:SCCF:16:1,2009-12-10T12:00:00Z,26.4345,-81.9647,2.685,33.56,1111122 
SCCF RECON,ioos:station:SCCF:16:1,2009-12-10T13:00:00Z,26.4345,-81.9647,2.704,33.77,1111122 
SCCF RECON,ioos:station:SCCF:16:1,2009-12-10T14:00:00Z,26.4345,-81.9647,2.679,33.73,1111122 
SCCF RECON,ioos:station:SCCF:16:1,2009-12-10T15:00:00Z,26.4345,-81.9647,2.629,33.8,1111122 
SCCF RECON,ioos:station:SCCF:16:1,2009-12-10T16:00:00Z,26.4345,-81.9647,2.558,33.76,1111122 
SCCF RECON,ioos:station:SCCF:16:1,2009-12-10T17:00:00Z,26.4345,-81.9647,2.487,33.75,1111122 
SCCF RECON,ioos:station:SCCF:16:1,2009-12-10T18:00:00Z,26.4345,-81.9647,2.402,33.64,1111122 
SCCF RECON,ioos:station:SCCF:16:1,2009-12-10T19:00:00Z,26.4345,-81.9647,2.399,33.54,1111122 
SCCF RECON,ioos:station:SCCF:16:1,2009-12-10T20:00:00Z,26.4345,-81.9647,2.52,33.52,1111122 
SCCF RECON,ioos:station:SCCF:16:1,2009-12-10T21:00:00Z,26.4345,-81.9647,2.661,33.54,1111122 
SCCF RECON,ioos:station:SCCF:16:1,2009-12-10T22:00:00Z,26.4345,-81.9647,2.757,33.72,1111122 
SCCF RECON,ioos:station:SCCF:16:1,2009-12-10T23:00:00Z,26.4345,-81.9647,2.804,33.89,1111122 
SCCF RECON,ioos:station:SCCF:16:1,2009-12-11T00:00:00Z,26.4345,-81.9647,2.798,33.95,1111122 
SCCF RECON,ioos:station:SCCF:16:1,2009-12-11T01:00:00Z,26.4345,-81.9647,2.757,34.0,1111122 
SCCF RECON,ioos:station:SCCF:16:1,2009-12-11T02:00:00Z,26.4345,-81.9647,2.677,34.0,1111122 
SCCF RECON,ioos:station:SCCF:16:1,2009-12-11T03:00:00Z,26.4345,-81.9647,2.564,33.96,1111122 
SCCF RECON,ioos:station:SCCF:16:1,2009-12-11T04:00:00Z,26.4345,-81.9647,2.41,33.9,1111122 
SCCF RECON,ioos:station:SCCF:16:1,2009-12-11T05:00:00Z,26.4345,-81.9647,2.262,33.69,1111122 
SCCF RECON,ioos:station:SCCF:16:1,2009-12-11T06:00:00Z,26.4345,-81.9647,2.099,33.43,1111122 
SCCF RECON,ioos:station:SCCF:16:1,2009-12-11T07:00:00Z,26.4345,-81.9647,1.966,33.04,1111122 
SCCF RECON,ioos:station:SCCF:16:1,2009-12-11T08:00:00Z,26.4345,-81.9647,1.98,33.22,1111122 
SCCF RECON,ioos:station:SCCF:16:1,2009-12-11T09:00:00Z,26.4345,-81.9647,2.09,32.78,1111122 
SCCF RECON,ioos:station:SCCF:16:1,2009-12-11T10:00:00Z,26.4345,-81.9647,2.187,32.69,1111122 
SCCF RECON,ioos:station:SCCF:16:1,2009-12-11T11:00:00Z,26.4345,-81.9647,2.3,32.85,1111122 
SCCF RECON,ioos:station:SCCF:16:1,2009-12-11T12:00:00Z,26.4345,-81.9647,2.401,33.16,1111122 
SCCF RECON,ioos:station:SCCF:16:1,2009-12-11T13:00:00Z,26.4345,-81.9647,2.536,33.3,1111122 
SCCF RECON,ioos:station:SCCF:16:1,2009-12-11T14:00:00Z,26.4345,-81.9647,2.549,33.24,1111122 
SCCF RECON,ioos:station:SCCF:16:1,2009-12-11T15:00:00Z,26.4345,-81.9647,2.526,33.23,1111122 
SCCF RECON,ioos:station:SCCF:16:1,2009-12-11T16:00:00Z,26.4345,-81.9647,2.478,33.34,1111122 